TimeCST,TemperatureF,Dew PointF,Humidity,Sea Level PressureIn,VisibilityMPH,Wind Direction,Wind SpeedMPH,Gust SpeedMPH,PrecipitationIn,Events,Conditions,WindDirDegrees,DateUTC
12:58 AM,40.3,38.7,94,30.23,10.0,Calm,Calm,-,N/A,,Overcast,0,2014-01-10 06:58:00
1:58 AM,37.2,37.2,100,30.22,10.0,ESE,5.8,-,N/A,,Overcast,120,2014-01-10 07:58:00
2:58 AM,38.5,38.3,99,30.21,10.0,ESE,5.8,-,N/A,,Overcast,120,2014-01-10 08:58:00
3:58 AM,38.7,38.5,99,30.19,10.0,ESE,4.6,-,N/A,,Overcast,120,2014-01-10 09:58:00
4:27 AM,41.0,41.0,100,30.17,10.0,SE,4.6,-,N/A,,Overcast,140,2014-01-10 10:27:00
4:33 AM,41.0,41.0,100,30.17,10.0,SE,5.8,-,N/A,,Overcast,140,2014-01-10 10:33:00
4:34 AM,41.0,41.0,100,30.17,10.0,SE,5.8,-,N/A,,Overcast,140,2014-01-10 10:34:00
4:58 AM,41.4,41.4,100,30.18,10.0,SE,5.8,-,N/A,,Overcast,140,2014-01-10 10:58:00
5:06 AM,41.0,41.0,100,30.16,10.0,SSE,5.8,-,N/A,,Overcast,150,2014-01-10 11:06:00
5:58 AM,42.8,42.8,100,30.17,10.0,SE,3.5,-,N/A,,Overcast,130,2014-01-10 11:58:00
6:58 AM,43.7,43.7,100,30.17,10.0,SE,4.6,-,N/A,,Overcast,130,2014-01-10 12:58:00
7:58 AM,44.6,44.6,100,30.16,9.0,SE,8.1,-,N/A,,Overcast,130,2014-01-10 13:58:00
8:18 AM,44.6,44.6,100,30.15,10.0,South,5.8,-,N/A,,Overcast,170,2014-01-10 14:18:00
8:38 AM,46.4,46.4,100,30.14,10.0,SSE,8.1,-,N/A,,Overcast,150,2014-01-10 14:38:00
8:58 AM,46.0,46.0,100,30.14,10.0,SSE,10.4,-,N/A,,Overcast,160,2014-01-10 14:58:00
9:37 AM,48.2,48.2,100,30.13,10.0,SSE,8.1,-,N/A,,Overcast,160,2014-01-10 15:37:00
9:58 AM,47.5,47.5,100,30.13,10.0,SSE,8.1,-,N/A,,Overcast,160,2014-01-10 15:58:00
10:58 AM,47.8,47.8,100,30.10,10.0,SSE,8.1,-,N/A,,Overcast,160,2014-01-10 16:58:00
11:36 AM,48.2,48.2,100,30.04,10.0,SSE,8.1,-,N/A,,Overcast,160,2014-01-10 17:36:00
11:38 AM,48.2,48.2,100,30.03,10.0,SSE,9.2,-,N/A,,Light Drizzle,150,2014-01-10 17:38:00
11:47 AM,48.2,48.2,100,30.03,10.0,SSE,8.1,-,N/A,,Overcast,160,2014-01-10 17:47:00
11:58 AM,48.6,48.4,99,30.03,10.0,SSE,8.1,-,0.00,,Overcast,150,2014-01-10 17:58:00
12:16 PM,48.2,48.2,100,30.01,10.0,South,9.2,-,N/A,,Overcast,170,2014-01-10 18:16:00
12:58 PM,49.5,49.5,100,29.98,10.0,SSE,9.2,-,N/A,,Overcast,160,2014-01-10 18:58:00
1:15 PM,50.0,50.0,100,29.96,10.0,SSE,9.2,18.4,N/A,,Overcast,160,2014-01-10 19:15:00
1:58 PM,51.4,50.4,96,29.94,10.0,SSE,8.1,-,N/A,,Mostly Cloudy,160,2014-01-10 19:58:00
2:32 PM,51.8,50.0,94,29.92,10.0,South,8.1,-,N/A,,Overcast,180,2014-01-10 20:32:00
2:58 PM,52.7,50.2,91,29.93,10.0,South,9.2,-,N/A,,Mostly Cloudy,170,2014-01-10 20:58:00
3:58 PM,53.2,50.2,89,29.93,10.0,South,10.4,-,N/A,,Overcast,190,2014-01-10 21:58:00
4:28 PM,51.8,50.0,94,29.91,10.0,South,10.4,-,N/A,,Overcast,190,2014-01-10 22:28:00
4:58 PM,52.2,50.2,93,29.90,10.0,SSE,8.1,-,N/A,,Overcast,160,2014-01-10 22:58:00
5:09 PM,51.8,50.0,94,29.89,10.0,South,6.9,-,N/A,,Overcast,170,2014-01-10 23:09:00
5:31 PM,51.8,50.0,94,29.87,10.0,SSE,9.2,-,N/A,,Mostly Cloudy,150,2014-01-10 23:31:00
5:58 PM,51.1,50.0,96,29.86,10.0,SSE,9.2,-,N/A,,Overcast,150,2014-01-10 23:58:00
6:19 PM,51.8,50.0,94,29.82,10.0,SE,15.0,-,N/A,,Scattered Clouds,140,2014-01-11 00:19:00
6:58 PM,51.8,50.9,97,29.83,10.0,SSE,13.8,-,N/A,,Mostly Cloudy,150,2014-01-11 00:58:00
7:58 PM,52.2,52.0,99,29.78,10.0,South,15.0,-,N/A,,Scattered Clouds,170,2014-01-11 01:58:00
8:58 PM,53.1,52.3,97,29.74,10.0,SSE,11.5,-,N/A,,Overcast,160,2014-01-11 02:58:00
9:58 PM,55.2,52.9,92,29.72,10.0,South,12.7,-,N/A,,Overcast,180,2014-01-11 03:58:00
10:23 PM,57.2,53.6,88,29.71,10.0,SSW,16.1,24.2,N/A,,Light Drizzle,200,2014-01-11 04:23:00
10:25 PM,57.2,53.6,88,29.72,10.0,SSW,16.1,23.0,N/A,,Light Drizzle,200,2014-01-11 04:25:00
10:34 PM,55.4,55.4,100,29.73,10.0,West,12.7,23.0,N/A,,Drizzle,280,2014-01-11 04:34:00
10:39 PM,55.4,53.6,94,29.73,10.0,NW,15.0,-,N/A,,Heavy Drizzle,310,2014-01-11 04:39:00
10:40 PM,53.6,53.6,100,29.72,9.0,NW,16.1,-,N/A,,Heavy Drizzle,320,2014-01-11 04:40:00
10:42 PM,53.6,53.6,100,29.72,8.0,NW,16.1,-,N/A,Rain,Light Rain,320,2014-01-11 04:42:00
10:44 PM,53.6,53.6,100,29.72,7.0,NW,13.8,-,N/A,Rain,Light Rain,320,2014-01-11 04:44:00
10:45 PM,53.6,53.6,100,29.72,7.0,NW,15.0,-,N/A,Rain,Light Rain,320,2014-01-11 04:45:00
10:46 PM,51.8,51.8,100,29.72,7.0,NW,15.0,-,N/A,Rain,Light Rain,320,2014-01-11 04:46:00
10:47 PM,51.8,51.8,100,29.72,7.0,NW,13.8,-,N/A,Rain,Light Rain,320,2014-01-11 04:47:00
10:56 PM,51.8,51.8,100,29.74,4.0,WNW,13.8,-,N/A,Rain,Heavy Rain,300,2014-01-11 04:56:00
10:57 PM,51.8,51.8,100,29.74,3.0,WNW,13.8,-,N/A,Rain,Heavy Rain,300,2014-01-11 04:57:00
10:58 PM,51.8,51.8,100,29.75,3.0,WNW,12.7,-,0.02,Rain,Heavy Rain,300,2014-01-11 04:58:00
10:59 PM,51.8,51.8,100,29.74,2.5,WNW,10.4,-,N/A,Rain,Heavy Rain,300,2014-01-11 04:59:00
11:13 PM,51.8,51.8,100,29.75,3.0,WNW,15.0,-,N/A,Rain-Thunderstorm,Rain,290,2014-01-11 05:13:00
11:14 PM,51.8,51.8,100,29.75,3.0,WNW,13.8,-,N/A,Rain-Thunderstorm,Thunderstorms and Rain,290,2014-01-11 05:14:00
11:26 PM,51.8,51.8,100,29.72,2.5,West,9.2,-,N/A,Rain-Thunderstorm,Heavy Thunderstorms and Rain,260,2014-01-11 05:26:00
11:30 PM,51.8,51.8,100,29.72,3.0,West,9.2,-,N/A,Rain-Thunderstorm,Heavy Thunderstorms and Rain,260,2014-01-11 05:30:00
11:35 PM,51.8,51.8,100,29.71,4.0,WSW,9.2,-,N/A,Rain,Rain,250,2014-01-11 05:35:00
11:43 PM,51.8,51.8,100,29.71,6.0,SSW,8.1,-,N/A,Rain-Thunderstorm,Light Rain,200,2014-01-11 05:43:00
11:48 PM,51.8,51.8,100,29.71,7.0,SSW,9.2,-,N/A,Rain-Thunderstorm,Thunderstorms and Rain,200,2014-01-11 05:48:00
11:58 PM,51.8,51.8,100,29.71,6.0,SSW,8.1,-,0.26,Rain-Thunderstorm,Thunderstorms and Rain,200,2014-01-11 05:58:00